Regional Weather Roundup
Issued by NWS

Home | Current Version | Previous Version | Text Only | Print | Product List | Glossary Off
Versions: 1 2 3 4 5 6 7 8 9 10 11 12 13 14 15 16 17 18 19 20 21 22 23 24 25 26 27 28 29 30 31 32 33 34 35 36 37 38 39 40 41 42 43 44 45 46 47 48 49 50

915
ASUS43 KBIS 271510
RWRND

NORTH DAKOTA REGIONAL WEATHER ROUNDUP
NATIONAL WEATHER SERVICE BISMARCK ND
1000 AM CDT TUE JUN 27 2017

NOTE: "FAIR" INDICATES FEW OR NO CLOUDS BELOW 12,000 FEET WITH NO
SIGNIFICANT WEATHER AND/OR OBSTRUCTIONS TO VISIBILITY.


NDZ001>003-009>011-017-271600-
NORTHWEST NORTH DAKOTA

CITY           SKY/WX    TMP DP  RH WIND       PRES   REMARKS
WILLISTON      MOSUNNY   72  44  36 S12G22    29.61F
MINOT          PTSUNNY   68  44  42 S20G28    29.65F
MINOT AFB      MOSUNNY   69  44  41 S24       29.64F
$$

NDZ018>021-031>035-040>046-271600-
SOUTHWEST NORTH DAKOTA

CITY           SKY/WX    TMP DP  RH WIND       PRES   REMARKS
BISMARCK       CLOUDY    69  49  48 S24G31    29.74F
DICKINSON      SUNNY     69  44  40 S17G26    29.66F
GARRISON         N/A     62  46  55 S16       29.71F
HETTINGER ARPT SUNNY     71  48  43 S17       29.71F
$$

NDZ004>008-012>016-024-026-027-054-271600-
NORTHEAST NORTH DAKOTA

CITY           SKY/WX    TMP DP  RH WIND       PRES   REMARKS
GRAND FORKS    CLOUDY    66  47  50 S16G24    29.86F
GRND FRKS AFB  PTSUNNY   69  45  41 S20       29.85F
DEVILS LAKE    CLOUDY    68  46  45 S15       29.80F
$$

NDZ022-023-025-028>030-036>039-047>053-271600-
SOUTHEAST NORTH DAKOTA

CITY           SKY/WX    TMP DP  RH WIND       PRES   REMARKS
FARGO          PTSUNNY   69  45  41 S13       29.91F
JAMESTOWN      CLOUDY    62  44  51 S20G26    29.83F
$$





USA.gov is the U.S. government's official web portal to all federal, state and local government web resources and services.